Location: Three Forks Visitor's Center
(58.3672°N, 155.3776°W)
Time: 12:59:14
(UTC-09:00)

N. Korean satellite - Visible Passes

Search period start: 23 January 2018 00:00
Search period end: 02 February 2018 00:00
Orbit: 458 x 515 km, 97.2° (Epoch: 23 January)

Date Brightness Start Highest point End Pass type
(mag) Time Alt. Az. Time Alt. Az. Time Alt. Az.
23 Jan 8.2 07:50:37 10° NNE 07:53:52 36° E 07:57:05 10° SSE visible
23 Jan 6.5 18:35:01 10° SSE 18:38:31 58° ENE 18:41:58 10° N visible
23 Jan 9.5 20:09:48 10° SW 20:12:21 18° W 20:14:53 10° NW visible
24 Jan 9.2 07:27:13 10° NE 07:30:01 22° E 07:32:48 10° SE visible
24 Jan 7.1 18:11:40 10° SE 18:14:54 35° ENE 18:18:08 10° N visible
24 Jan 8.7 19:45:21 10° SSW 19:48:29 29° W 19:51:36 10° NNW visible
25 Jan 9.9 07:04:10 10° NE 07:06:07 14° E 07:08:02 10° ESE visible
25 Jan 6.4 08:36:38 10° NNE 08:40:06 76° WNW 08:43:34 10° SSW visible
25 Jan 7.5 19:21:15 10° S 19:24:41 49° W 19:28:06 10° NNW visible
26 Jan 7.0 08:12:57 10° NNE 08:16:24 62° ESE 08:19:51 10° S visible
26 Jan 6.5 18:57:26 10° SSE 19:00:57 85° WSW 19:04:28 10° NNW visible
26 Jan 10.1 20:33:45 10° WSW 20:35:03 12° W 20:36:22 10° WNW visible
27 Jan 8.3 07:49:23 10° NNE 07:52:37 36° E 07:55:52 10° SSE visible
27 Jan 6.5 18:33:50 10° SSE 18:37:16 56° ENE 18:40:43 10° N visible
27 Jan 9.5 20:08:35 10° SW 20:11:07 19° W 20:13:39 10° NW visible
28 Jan 9.3 07:25:59 10° NE 07:28:46 22° E 07:31:33 10° SE visible
28 Jan 8.6 19:44:07 10° SSW 19:47:14 29° W 19:50:21 10° NNW visible
29 Jan 9.9 07:02:57 10° NE 07:04:51 14° E 07:06:45 10° ESE visible
29 Jan 6.4 08:35:23 10° NNE 08:38:51 78° WNW 08:42:20 10° SSW visible
29 Jan 7.5 19:20:01 10° S 19:23:26 50° W 19:26:50 10° NNW visible
30 Jan 7.1 08:11:41 10° NNE 08:15:08 61° ESE 08:18:36 10° S visible
30 Jan 6.5 18:56:12 10° SSE 18:59:41 87° WSW 19:03:11 10° NNW visible
30 Jan 10.1 20:32:27 10° WSW 20:33:47 12° W 20:35:08 10° WNW visible
31 Jan 8.3 07:48:06 10° NNE 07:51:21 35° E 07:54:36 10° SSE visible
31 Jan 6.6 18:32:35 10° SSE 18:36:00 55° ENE 18:39:25 10° N visible
31 Jan 9.5 20:07:18 10° SW 20:09:50 19° W 20:12:22 10° NW visible
01 Feb 9.3 07:24:42 10° NE 07:27:29 22° E 07:30:17 10° SE visible
01 Feb 8.6 19:42:50 10° SSW 19:45:56 30° W 19:49:04 10° NNW visible
